Location: ???????
(55.2903°N, 39.1554°E)
Time: 10:15:11
(UTC+00:00)

NOSS 7 (E) - Visible Passes

Search period start: 19 July 2024 00:00
Search period end: 29 July 2024 00:00
Orbit: 391 x 1674 km, 63.3° (Epoch: 18 July)

Date Brightness Start Highest point End Pass type
(mag) Time Alt. Az. Time Alt. Az. Time Alt. Az.
19 Jul 5.1 18:53:49 10° WSW 18:57:56 63° NW 19:01:12 10° NE visible
19 Jul 7.2 20:44:30 10° WNW 20:47:20 22° NNW 20:49:52 10° NE visible
19 Jul 6.9 22:34:30 10° NW 22:37:10 24° NNE 22:39:46 10° ENE visible
20 Jul 6.6 19:37:41 10° W 19:41:07 31° NNW 19:44:02 10° NE visible
20 Jul 7.3 21:28:20 10° NW 21:30:52 20° N 21:33:14 10° NE visible
20 Jul 5.6 23:17:31 10° NW 23:20:28 43° NNE 23:23:31 10° ESE visible
21 Jul 5.3 18:31:00 10° WSW 18:35:04 58° NW 18:38:19 10° NE visible
21 Jul 7.2 20:21:44 10° WNW 20:24:30 21° N 20:27:01 10° NE visible
21 Jul 6.7 22:11:38 10° NW 22:14:20 25° NNE 22:16:59 10° ENE visible
22 Jul 4.1 00:00:27 10° NW 00:03:30 72° SW 00:06:48 10° SE visible
22 Jul 6.7 19:14:53 10° W 19:18:14 30° NNW 19:21:07 10° NE visible
22 Jul 7.2 21:05:29 10° NW 21:08:00 20° N 21:10:23 10° NE visible
22 Jul 5.3 22:54:35 10° NW 22:57:34 46° NNE 23:00:40 10° ESE visible
23 Jul 7.2 19:58:53 10° WNW 20:01:36 21° N 20:04:05 10° NE visible
23 Jul 6.6 21:48:41 10° NW 21:51:24 26° NNE 21:54:07 10° E visible
23 Jul 4.1 23:37:29 10° NW 23:40:31 63° SW 23:43:49 10° SE visible
24 Jul 6.8 18:52:00 10° W 18:55:17 28° NNW 18:58:06 10° NE visible
24 Jul 7.1 20:42:32 10° NW 20:45:03 20° N 20:47:28 10° ENE visible
24 Jul 5.1 22:31:34 10° NW 22:34:35 51° NNE 22:37:43 10° ESE visible
25 Jul 5.5 00:20:48 10° WNW 00:23:15 21° SW 00:25:54 10° S visible
25 Jul 7.2 19:35:57 10° WNW 19:38:37 21° N 19:41:04 10° NE visible
25 Jul 6.4 21:25:39 10° NW 21:28:24 28° NNE 21:31:09 10° E visible
25 Jul 4.2 23:14:27 10° WNW 23:17:28 56° SW 23:20:45 10° SE visible
26 Jul 6.8 18:29:02 10° W 18:32:14 27° NNW 18:35:01 10° NE visible
26 Jul 7.0 20:19:29 10° NW 20:22:01 21° N 20:24:27 10° ENE visible
26 Jul 4.8 22:08:28 10° NW 22:11:30 56° NE 22:14:41 10° ESE visible
26 Jul 5.7 23:57:48 10° WNW 00:00:07 19° SW 00:02:38 10° S visible
27 Jul 7.1 19:12:55 10° WNW 19:15:33 20° N 19:17:58 10° NE visible
27 Jul 6.2 21:02:31 10° NW 21:05:19 29° NNE 21:08:06 10° E visible
27 Jul 4.4 22:51:21 10° WNW 22:54:19 50° SW 22:56:56 14° SSE visible
28 Jul 6.8 19:56:22 10° NW 19:58:55 21° N 20:01:22 10° ENE visible
28 Jul 4.6 21:45:18 10° NW 21:48:21 62° NE 21:51:22 11° ESE visible
28 Jul 5.9 23:34:46 10° W 23:36:55 17° SW 23:37:06 17° SW visible
